Meridian, MS

8:55 PM CDT on April 29, 2017 (GMT -0500)
Key

Weather History for KMEI - March, 2013

Change the Weather History Date:

Tuesday, March 5, 2013

  Actual Average Record
Temperature  
Mean Temperature 55 °F 53 °F  
Max Temperature 71 °F 66 °F 85 °F (1974)
Min Temperature 38 °F 40 °F 18 °F (1978)
Degree Days  
Heating Degree Days 10 12  
Month to date heating degree days 108 63  
Since 1 July heating degree days 1995 2160  
Cooling Degree Days 0 0  
Month to date cooling degree days 0 0  
Year to date cooling degree days 16 7  
Growing Degree Days 4 (Base 50)    
Moisture  
Dew Point 48 °F    
Average Humidity 74    
Maximum Humidity 93    
Minimum Humidity 54    
Precipitation  
Precipitation 0.01 in 0.19 in 3.76 in (1935)
Month to date precipitation 0.01 0.93  
Year to date precipitation 18.84 11.66  
Sea Level Pressure  
Sea Level Pressure 29.99 in    
Wind  
Wind Speed 12 mph (West)    
Max Wind Speed 29 mph    
Max Gust Speed 38 mph    
Visibility 10 miles    
Events Rain    
T = Trace of Precipitation, MM = Missing Value Source: NWS Daily Summary

Daily Weather History Graph

Daily Weather History Graph

Search for Another Location

Airport or City:

Trip Planner

Search our weather history database for the weather conditions in past years. The results will help you decide how hot, cold, wet, or windy it might be!

Date:

Astronomy

Mar. 05, 2013 Rise Set
Actual Time 6:17 AM CST 5:55 PM CST
Civil Twilight 5:52 AM CST 6:20 PM CST
Nautical Twilight 5:24 AM CST 6:48 PM CST
Astronomical Twilight 4:56 AM CST 7:17 PM CST
Moon 1:14 AM CST (3/5) 11:49 AM CST (3/5)
Length of Visible Light 12h 27m
Length of Day
11h 38m
Last Quarter, 40% of the Moon is Illuminated
Mar 5
Last Quarter
Mar 11
New
Mar 19
First Quarter
Mar 27
Full
Apr 2
Last Quarter

Hourly Weather History & Observations

Time (CST) Temp. Windchill Dew Point Humidity Pressure Visibility Wind Dir Wind Speed Gust Speed Precip Events Conditions
1:58 AM 55.9 °F - 51.1 °F 84% 29.93 in 10.0 mi South 12.7 mph - N/A   Scattered Clouds
2:58 AM 57.0 °F - 52.0 °F 83% 29.91 in 10.0 mi South 12.7 mph - N/A   Clear
3:58 AM 57.0 °F - 53.1 °F 87% 29.91 in 10.0 mi South 10.4 mph - N/A   Clear
4:58 AM 57.0 °F - 52.0 °F 83% 29.93 in 10.0 mi South 8.1 mph - N/A   Mostly Cloudy
5:58 AM 55.9 °F - 53.1 °F 90% 29.94 in 10.0 mi South 6.9 mph - N/A   Scattered Clouds
6:58 AM 55.9 °F - 53.1 °F 90% 29.97 in 10.0 mi SSW 6.9 mph - N/A   Overcast
7:58 AM 59.0 °F - 53.6 °F 82% 29.96 in 10.0 mi SSW 11.5 mph - N/A   Overcast
8:58 AM 62.1 °F - 55.9 °F 80% 29.94 in 10.0 mi South 13.8 mph - N/A   Overcast
9:21 AM 62.6 °F - 55.4 °F 77% 29.94 in 10.0 mi SSW 12.7 mph - N/A   Overcast
9:58 AM 64.0 °F - 57.0 °F 78% 29.92 in 10.0 mi SSW 17.3 mph 25.3 mph N/A   Overcast
10:58 AM 64.9 °F - 59.0 °F 81% 29.91 in 10.0 mi SSW 12.7 mph 24.2 mph 0.00 in Rain Light Rain
11:47 AM 66.2 °F - 57.2 °F 73% 29.90 in 10.0 mi SW 15.0 mph 24.2 mph 0.00 in   Mostly Cloudy
11:58 AM 69.1 °F - 59.0 °F 70% 29.89 in 10.0 mi SW 16.1 mph 26.5 mph 0.00 in   Mostly Cloudy
12:15 PM 69.8 °F - 57.2 °F 64% 29.89 in 10.0 mi SW 19.6 mph 29.9 mph N/A   Mostly Cloudy
12:23 PM 66.2 °F - 57.2 °F 73% 29.91 in 1.0 mi WNW 26.5 mph 36.8 mph 0.00 in Rain Heavy Rain
12:26 PM 62.6 °F - 55.4 °F 77% 29.92 in 3.0 mi NW 26.5 mph 38.0 mph 0.01 in Rain Rain
12:44 PM 59.0 °F - 53.6 °F 82% 29.94 in 10.0 mi WNW 23.0 mph 31.1 mph 0.01 in   Mostly Cloudy
12:58 PM 60.1 °F - 53.1 °F 78% 29.94 in 10.0 mi NW 21.9 mph 32.2 mph 0.01 in   Mostly Cloudy
1:26 PM 57.2 °F - 48.2 °F 72% 29.96 in 10.0 mi NW 24.2 mph 32.2 mph N/A   Mostly Cloudy
1:58 PM 57.0 °F - 46.9 °F 69% 29.98 in 10.0 mi NW 19.6 mph 26.5 mph N/A   Mostly Cloudy
2:25 PM 57.2 °F - 44.6 °F 63% 29.99 in 10.0 mi WNW 21.9 mph 29.9 mph N/A   Scattered Clouds
2:58 PM 55.0 °F - 43.0 °F 64% 30.02 in 10.0 mi NW 20.7 mph 27.6 mph N/A   Scattered Clouds
3:12 PM 57.2 °F - 42.8 °F 59% 30.02 in 10.0 mi NW 19.6 mph 26.5 mph N/A   Mostly Cloudy
3:23 PM 55.4 °F - 41.0 °F 58% 30.03 in 10.0 mi NW 19.6 mph - N/A   Scattered Clouds
3:58 PM 55.0 °F - 41.0 °F 59% 30.04 in 10.0 mi NNW 17.3 mph 23.0 mph N/A   Scattered Clouds
4:58 PM 53.1 °F - 37.0 °F 55% 30.07 in 10.0 mi NW 17.3 mph 27.6 mph N/A   Clear
5:58 PM 50.0 °F - 37.0 °F 61% 30.09 in 10.0 mi NW 6.9 mph - N/A   Clear
6:58 PM 46.9 °F - 37.0 °F 68% 30.10 in 10.0 mi NW 3.5 mph - N/A   Clear
7:58 PM 42.1 °F - 37.9 °F 85% 30.12 in 10.0 mi Calm Calm - N/A   Clear
8:58 PM 41.0 °F - 39.0 °F 93% 30.13 in 10.0 mi Calm Calm - N/A   Clear
9:58 PM 42.1 °F 37.1 °F 35.1 °F 76% 30.15 in 10.0 mi NW 8.1 mph - N/A   Clear
10:58 PM 42.1 °F 37.7 °F 33.1 °F 70% 30.16 in 10.0 mi NW 6.9 mph - N/A   Clear
11:58 PM 39.9 °F 35.8 °F 30.9 °F 70% 30.18 in 10.0 mi NW 5.8 mph - N/A   Clear